Temp
81 83 82 81 82 64 66 72 63 67 71 71 57 57 60 59 53 51 51 60 58 61 65 67 70 73 73 76 78 77 75 76 76 76 77 78 78 78 78 78 78 78 79 79 80 80 80 80 79 79 79 79 78 77 77 76 76 75 74 75 73 73 72
80 87 85 84 85 75 68 67 67 72 75 71 60 52 50 51 46 47 56 58 56 62 54 64 69 69 72 74 75 78 76 75 74 76 76 77 78 78 78 79 79 79 79 79 81 81 81 81 81 80 79 80 79 78 78 76 76 74 75 75 74 73 72
82 84 83 81 82 83 77 76 76 73 58 62 58 54 50 48 48 47 51 56 55 56 56 62 65 68 68 71 73 75 74 75 75 76 76 77 78 78 77 77 77 77 78 79 80 81 82 82 81 81 81 80 79 79 79 78 77 77 76 76 75 74 74
79 80 77 66 74 79 80 80 75 75 68 60 55 60 50 53 43 49 47 53 50 57 60 66 68 69 69 71 72 74 76 76 77 77 76 75 76 76 77 78 78 78 79 80 81 81 81 81 81 81 81 81 80 79 78 78 78 77 76 75 75 73 74
80 68 71 70 70 69 69 70 66 70 70 66 69 62 57 55 43 40 41 48 46 52 63 70 71 71 72 73 73 74 76 76 78 78 77 76 76 77 77 78 77 78 79 80 81 82 82 82 81 81 81 80 80 79 78 78 77 76 76 76 75 74 74
66 68 76 80 77 77 69 69 66 66 61 61 58 51 58 57 51 42 47 46 46 57 70 71 72 74 75 75 75 74 75 77 77 78 78 77 76 76 78 79 79 79 79 80 82 82 81 81 81 80 80 80 80 79 79 79 78 78 77 76 75 74 74
67 75 81 86 83 81 77 77 70 73 63 60 57 49 51 59 58 57 50 47 49 57 68 72 72 72 75 75 76 76 77 78 78 79 79 77 78 78 79 80 80 80 79 80 80 80 80 79 79 79 79 80 79 79 79 78 78 77 78 77 76 74 74
72 78 81 84 81 82 74 75 73 72 67 66 57 50 50 57 55 55 55 53 47 57 64 72 73 73 76 77 78 77 77 79 79 78 77 76 76 76 79 81 81 80 80 80 79 79 79 78 78 78 78 79 79 79 79 78 78 78 78 77 76 74 74
59 64 69 73 77 79 68 64 72 73 72 72 65 61 57 60 54 56 50 46 50 59 68 68 74 76 77 77 79 79 77 76 78 77 76 76 76 76 77 78 79 79 79 78 78 78 77 77 78 78 78 78 78 78 78 78 78 79 78 78 77 75 75
45 47 50 52 56 64 69 70 73 76 74 73 67 62 58 51 49 55 51 47 47 58 67 69 70 74 74 75 75 76 78 75 76 75 75 74 74 75 76 77 78 78 78 78 78 77 77 77 77 77 77 78 78 78 78 79 78 78 78 78 77 76 76
51 56 52 60 65 66 69 70 74 73 74 76 71 57 50 55 43 57 44 54 57 66 67 66 69 72 75 72 70 72 72 72 74 74 73 73 74 75 77 77 78 77 76 77 77 77 78 78 77 77 77 77 77 77 77 79 79 78 77 77 76 76 77
63 62 62 69 74 72 73 72 73 73 73 71 69 62 58 53 53 48 45 51 64 66 68 68 69 71 72 70 70 73 72 72 74 74 73 75 73 74 75 75 76 76 77 77 77 77 77 77 77 77 77 78 77 76 77 78 78 78 78 77 76 76 76
71 72 70 70 74 76 74 75 74 73 72 69 68 63 67 59 60 56 56 55 65 69 72 73 73 74 73 72 73 77 76 74 71 71 71 72 73 73 73 73 74 75 75 76 76 77 77 78 77 77 77 77 77 77 78 77 78 77 78 76 76 76 76
69 70 72 73 73 74 76 76 75 76 74 70 72 70 68 67 61 68 64 59 65 73 73 76 77 75 76 74 74 74 73 74 72 72 70 72 71 72 73 74 74 75 76 76 76 77 77 77 77 77 76 76 76 76 77 77 77 78 77 76 76 76 75
69 70 72 72 71 72 73 77 78 78 77 76 75 76 74 68 64 64 62 61 60 70 78 78 76 71 71 71 72 75 74 73 73 73 73 71 71 71 72 72 73 75 75 76 76 76 76 77 77 77 77 77 77 77 78 78 77 78 78 76 76 76 74
62 69 71 71 71 73 74 72 72 72 71 67 70 69 69 64 61 62 62 60 61 69 68 71 69 69 73 73 71 71 69 73 73 72 72 71 69 70 72 73 73 72 72 72 73 74 76 77 77 77 77 77 77 76 77 78 79 79 78 77 76 74 73
56 67 71 72 72 69 65 68 71 71 70 71 74 72 70 69 70 60 58 61 70 71 69 69 65 70 72 72 73 72 70 70 73 71 71 71 72 72 70 71 72 73 74 74 74 75 77 77 77 78 78 77 76 77 77 78 77 77 77 77 73 73 74
53 66 69 65 58 52 54 63 74 75 73 72 71 68 69 68 66 64 66 70 69 68 70 72 69 70 72 73 70 74 72 70 70 71 72 73 73 72 72 71 73 73 74 74 75 76 77 78 79 80 79 78 79 79 79 78 77 77 77 75 73 73 72
56 59 65 60 51 51 62 67 74 77 76 76 71 71 71 70 69 67 66 65 65 70 72 72 71 71 70 71 72 72 73 73 73 71 70 70 71 72 71 69 71 72 73 74 74 74 76 78 78 79 78 79 79 78 78 77 78 76 74 72 70 69 69
54 50 51 50 48 58 65 69 73 74 74 70 71 68 71 69 68 68 67 67 67 69 71 72 71 71 70 70 71 71 71 74 75 74 74 74 73 73 73 72 70 72 73 74 75 75 77 77 78 79 79 80 79 80 80 75 72 71 70 68 67 67 67
52 48 48 50 57 63 63 68 69 69 68 65 65 55 64 67 67 68 65 67 71 70 69 70 70 71 72 69 73 74 73 70 74 79 77 77 74 73 71 72 71 71 74 75 76 76 76 77 78 79 80 80 79 77 72 68 70 69 68 67 66 66 67
53 48 46 47 53 50 55 59 69 74 73 72 66 59 58 65 70 70 69 67 68 70 72 72 71 73 70 66 72 71 77 74 72 74 76 78 76 72 71 70 70 70 71 73 75 75 73 73 73 74 76 76 72 69 68 69 68 67 68 67 67 67 67
55 45 40 46 43 47 53 61 68 71 72 73 64 57 51 61 68 69 68 70 70 71 71 67 69 69 64 61 62 64 69 77 78 77 76 77 78 77 78 77 74 73 71 72 74 74 74 73 71 72 72 71 68 67 68 68 69 69 67 67 67 67 68
48 46 44 48 51 54 61 65 68 71 70 72 69 52 48 60 68 67 70 69 67 65 65 67 69 68 62 64 64 68 76 74 77 77 76 73 74 75 73 73 72 72 73 73 71 71 70 68 69 71 71 70 69 68 68 70 70 70 70 70 70 70 70
53 53 50 52 57 61 66 67 71 72 71 61 48 42 54 65 64 67 67 69 67 66 66 65 65 65 65 65 71 76 75 78 77 76 76 73 75 74 73 72 72 70 70 72 71 71 70 69 70 71 72 71 70 70 69 69 70 72 72 72 72 71 71
52 51 52 50 52 63 67 68 71 70 65 49 51 58 60 64 64 68 70 69 69 69 69 68 67 68 72 73 73 75 76 75 73 75 76 74 74 72 72 70 69 68 67 66 68 69 69 70 72 72 71 71 70 68 68 69 71 73 73 73 74 72 71
53 49 48 51 45 55 69 69 65 66 55 58 61 65 66 68 66 67 68 69 68 69 67 67 67 69 72 73 72 71 72 71 71 72 73 73 76 71 68 69 70 70 67 66 68 68 69 71 72 73 73 70 69 69 68 70 73 72 71 72 73 74 74
48 46 46 45 55 62 70 66 59 62 64 66 65 67 65 68 69 68 67 67 67 68 68 67 68 69 71 71 70 69 69 69 69 69 68 67 69 71 73 72 70 70 68 68 68 68 69 69 70 72 72 70 69 69 69 72 72 72 69 70 69 69 68
50 51 53 59 63 65 70 70 67 67 68 69 69 69 68 68 68 68 68 68 69 69 70 70 69 69 69 68 69 68 67 67 66 66 67 67 68 68 68 71 70 69 70 68 68 68 68 68 69 71 72 71 70 69 70 71 70 72 70 69 68 68 68
63 64 62 64 65 66 68 70 70 70 70 70 70 69 67 67 68 68 68 69 69 70 70 71 68 68 68 69 68 67 67 67 66 65 66 66 67 67 68 68 70 69 69 68 68 68 66 68 67 69 69 69 67 67 68 69 70 69 70 69 69 68 67
49 49 61 62 62 65 67 67 69 71 71 69 68 66 65 65 68 69 69 70 70 69 70 69 68 69 70 71 67 64 64 64 63 64 64 66 65 66 67 68 70 68 67 67 67 68 66 67 69 70 69 69 69 69 68 69 68 70 71 69 69 68 67
53 54 58 62 65 65 66 65 65 65 67 70 69 67 67 67 68 69 69 70 70 72 70 69 70 70 69 69 69 66 65 64 63 62 63 64 65 65 66 68 68 67 67 66 66 66 65 67 68 69 70 69 70 70 71 70 70 69 69 68 68 68 68
57 61 62 61 64 66 66 67 66 66 66 67 68 69 70 70 70 70 71 71 69 70 69 70 69 70 70 68 67 68 64 63 63 62 61 61 62 63 65 66 67 68 67 66 66 65 65 67 68 69 69 69 69 67 68 68 68 68 68 68 66 66 66
51 52 59 62 56 56 61 65 67 67 67 69 68 69 69 68 68 68 69 69 69 69 69 68 66 67 68 69 68 69 68 65 64 63 63 63 65 65 65 65 65 66 67 66 65 65 65 67 67 67 66 66 66 66 66 66 66 63 64 65 66 65 65
52 59 63 61 61 60 62 65 65 66 67 68 68 67 68 68 68 68 67 67 65 65 67 70 68 67 67 69 68 67 68 66 66 66 65 65 65 65 66 66 65 65 65 66 65 64 64 65 65 65 64 64 64 65 64 64 64 63 62 63 66 65 65
59 62 64 61 58 60 63 64 64 65 66 67 68 68 69 69 69 69 69 67 66 65 66 69 70 68 67 69 68 66 67 66 65 65 65 66 66 67 66 66 65 65 64 64 64 64 64 65 66 65 64 65 65 66 65 64 64 63 63 61 62 63 64
57 62 64 64 63 63 65 64 66 67 67 69 68 68 69 69 70 69 68 66 66 68 66 67 69 68 67 68 68 67 66 66 66 65 65 65 67 67 67 66 65 65 65 65 65 65 65 66 66 66 65 64 65 67 67 67 66 65 65 66 67 68 68
MSLP
1001.94 1001.62 1001.34 1002.38 1001.98 1009.46 1005.90 1005.54 1008.46 1006.62 1004.70 1006.02 1009.26 1010.94 1010.42 1010.50 1011.46 1012.54 1009.38 1008.94 1008.30 1005.94 1005.22 1005.70 1005.46 1005.38 1005.90 1005.98 1006.38 1006.86 1007.46 1007.78 1008.10 1008.50 1008.46 1008.54 1008.78 1008.98 1009.18 1009.38 1009.46 1009.58 1009.74 1009.82 1009.82 1010.02 1010.26 1010.42 1010.70 1010.74 1010.78 1010.86 1011.18 1011.62 1012.06 1012.42 1012.58 1012.74 1012.94 1013.02 1013.22 1013.46 1013.70
1001.38 999.90 999.90 1000.74 1000.98 1001.54 1004.42 1007.38 1005.78 1003.98 1004.38 1004.18 1007.66 1012.38 1011.54 1012.18 1014.14 1012.18 1009.90 1010.62 1010.30 1009.78 1011.26 1006.86 1007.14 1007.22 1006.86 1006.50 1006.54 1006.58 1007.06 1007.62 1008.34 1008.18 1008.06 1008.14 1008.38 1008.38 1008.34 1008.42 1008.58 1008.78 1008.94 1009.22 1009.38 1009.42 1009.42 1009.58 1009.66 1009.86 1010.06 1010.06 1010.30 1010.66 1011.14 1011.74 1012.14 1012.46 1012.50 1012.62 1012.90 1013.14 1013.50
1000.98 999.78 1000.66 1001.78 1000.78 999.94 1003.02 1004.22 1001.90 1005.98 1010.14 1010.26 1008.70 1009.62 1014.46 1015.10 1015.14 1013.42 1010.70 1010.02 1010.38 1009.78 1009.14 1008.26 1008.42 1008.18 1007.78 1007.02 1006.70 1006.98 1007.66 1007.86 1007.86 1007.86 1007.86 1007.74 1007.70 1008.22 1008.82 1009.02 1009.14 1009.22 1009.14 1009.14 1009.10 1009.10 1008.98 1008.90 1008.90 1008.98 1009.22 1009.62 1009.98 1010.34 1010.54 1010.82 1011.30 1011.46 1011.74 1012.06 1012.34 1012.70 1012.94
1001.10 1001.06 1002.22 1006.70 1004.26 1001.70 1000.90 1000.90 1003.54 1002.38 1004.42 1007.78 1010.42 1008.74 1009.94 1010.34 1013.98 1014.14 1012.66 1010.58 1011.26 1008.38 1007.06 1006.70 1007.18 1007.10 1007.38 1007.30 1007.30 1007.02 1006.74 1006.86 1006.98 1007.30 1007.78 1007.94 1008.14 1008.22 1008.38 1008.62 1008.70 1008.62 1008.54 1008.50 1008.50 1008.66 1008.90 1008.98 1009.02 1009.06 1009.26 1009.58 1009.98 1010.10 1010.38 1010.58 1010.82 1011.22 1011.78 1012.14 1012.30 1012.62 1012.70
1001.46 1005.06 1002.90 1004.70 1004.22 1005.34 1004.86 1004.46 1005.46 1004.94 1004.66 1004.46 1004.82 1008.38 1008.74 1010.10 1012.46 1013.10 1013.14 1013.38 1010.18 1006.70 1005.30 1006.06 1006.30 1005.90 1006.10 1006.18 1006.38 1006.10 1006.22 1006.38 1006.34 1006.38 1006.94 1007.26 1007.30 1007.58 1007.74 1007.90 1008.22 1008.18 1008.10 1008.10 1007.98 1007.74 1007.74 1007.94 1008.30 1008.74 1009.18 1009.42 1009.54 1009.90 1010.30 1010.50 1010.94 1011.30 1011.46 1011.66 1012.06 1012.34 1012.50
1004.54 1003.26 1000.94 1000.90 1001.94 1002.30 1003.62 1004.26 1005.58 1005.18 1006.42 1008.06 1009.66 1010.86 1008.50 1008.78 1009.66 1012.78 1012.98 1012.94 1008.98 1005.42 1004.38 1004.90 1005.14 1004.74 1004.98 1004.90 1005.06 1005.90 1005.86 1005.78 1005.78 1005.86 1006.10 1006.42 1007.06 1007.34 1007.22 1006.94 1006.90 1007.50 1007.74 1007.34 1007.30 1007.58 1007.86 1008.34 1008.66 1008.86 1008.94 1009.30 1009.62 1009.82 1009.90 1010.22 1010.66 1010.86 1011.06 1011.34 1011.58 1012.02 1012.38
1004.14 1001.90 1000.06 998.78 999.46 1000.38 1001.46 1002.06 1003.98 1003.34 1004.58 1005.42 1007.50 1011.38 1009.66 1008.10 1007.70 1007.94 1009.58 1010.54 1009.18 1004.62 1004.06 1004.06 1004.50 1004.66 1004.70 1004.70 1004.82 1005.26 1005.14 1005.10 1005.18 1005.22 1005.54 1006.06 1005.90 1006.06 1006.18 1006.46 1006.58 1006.38 1006.42 1006.78 1007.02 1007.26 1007.58 1007.86 1008.06 1008.26 1008.62 1008.90 1009.06 1009.30 1009.70 1009.98 1010.30 1010.58 1010.62 1010.90 1011.30 1011.78 1012.26
1001.74 1000.54 999.42 998.90 999.38 999.94 1002.22 1002.10 1002.06 1003.50 1005.18 1004.30 1005.70 1006.38 1006.34 1007.94 1008.70 1009.34 1010.50 1011.10 1008.86 1004.50 1003.86 1003.74 1004.06 1003.82 1003.86 1003.98 1004.06 1004.46 1004.62 1004.50 1004.50 1004.86 1005.30 1005.78 1006.02 1005.98 1005.62 1005.38 1005.66 1005.98 1006.06 1006.34 1007.02 1007.42 1007.66 1007.94 1008.26 1008.42 1008.42 1008.58 1008.90 1009.26 1009.42 1009.70 1010.06 1010.22 1010.50 1010.82 1011.22 1011.74 1012.18
1005.26 1004.14 1002.34 1001.78 1000.46 1000.38 1001.98 1002.86 1002.46 1002.50 1002.54 1002.70 1003.26 1004.18 1006.50 1007.66 1008.02 1007.50 1009.50 1012.06 1009.70 1004.74 1003.90 1003.98 1003.94 1003.74 1004.06 1004.22 1003.78 1003.58 1004.34 1004.26 1004.14 1004.46 1004.82 1005.18 1005.38 1005.66 1005.70 1005.58 1005.50 1005.74 1006.18 1006.66 1006.82 1006.94 1007.26 1007.58 1007.78 1007.98 1008.30 1008.50 1008.70 1008.98 1009.10 1009.38 1009.54 1009.74 1010.14 1010.50 1011.02 1011.54 1011.86
1009.98 1010.10 1009.06 1007.54 1005.90 1004.02 1002.26 1001.22 1001.70 1001.78 1002.50 1003.06 1004.34 1006.78 1007.30 1009.02 1008.30 1008.46 1008.42 1008.98 1006.62 1005.26 1004.90 1004.94 1004.82 1004.26 1004.58 1004.14 1003.94 1003.86 1003.18 1003.70 1004.14 1004.54 1004.86 1005.02 1005.38 1005.50 1005.42 1005.38 1005.58 1005.98 1006.06 1006.06 1006.30 1006.66 1006.94 1007.18 1007.42 1007.70 1007.86 1008.02 1008.22 1008.42 1008.54 1008.62 1009.14 1009.58 1009.90 1010.18 1010.62 1011.18 1011.54
1006.34 1004.98 1003.54 1001.66 1000.86 1002.22 1003.78 1002.46 1001.78 1002.02 1002.06 1001.90 1002.70 1004.42 1007.14 1008.42 1008.06 1008.02 1006.94 1006.02 1007.10 1006.42 1005.82 1005.78 1005.42 1004.86 1004.42 1004.62 1004.62 1004.06 1003.94 1004.06 1003.66 1003.98 1004.54 1004.94 1005.14 1005.02 1004.90 1004.94 1005.10 1005.30 1005.78 1006.10 1006.14 1006.34 1006.50 1006.74 1006.98 1007.26 1007.46 1007.78 1007.94 1008.14 1008.34 1008.38 1008.54 1008.94 1009.38 1009.82 1010.30 1010.82 1011.18
1002.58 1002.34 1001.78 1000.82 1000.62 1002.42 1002.02 1002.42 1002.38 1001.62 1001.82 1002.50 1003.78 1005.46 1006.74 1005.06 1006.82 1009.18 1006.18 1006.98 1006.50 1006.58 1005.34 1005.10 1005.06 1004.54 1004.02 1004.10 1004.10 1003.82 1003.62 1003.82 1003.86 1003.90 1004.30 1004.50 1004.86 1004.90 1004.94 1005.10 1005.30 1005.54 1005.54 1005.74 1006.06 1006.14 1006.30 1006.54 1006.58 1006.82 1006.90 1006.98 1007.34 1007.66 1007.94 1007.98 1008.18 1008.58 1008.94 1009.34 1009.90 1010.34 1010.66
1001.30 1001.14 1000.62 1000.78 1001.14 1000.94 1001.38 1001.42 1001.62 1002.26 1001.86 1002.46 1004.02 1004.30 1003.50 1004.50 1005.66 1007.34 1005.06 1006.38 1005.42 1005.14 1004.10 1003.78 1003.66 1003.18 1003.38 1003.38 1003.58 1002.90 1002.66 1003.10 1003.54 1003.90 1004.58 1004.86 1004.86 1004.98 1005.18 1005.18 1005.14 1005.22 1005.54 1005.66 1005.62 1005.62 1005.58 1005.78 1006.26 1006.46 1006.74 1006.98 1007.06 1007.14 1007.14 1007.38 1007.74 1008.06 1008.26 1008.86 1009.46 1009.86 1010.22
1001.42 1001.46 1001.14 1000.50 1000.98 1001.22 1000.94 1001.10 1001.14 1000.86 1001.66 1002.26 1002.06 1002.90 1003.22 1003.50 1003.30 1002.42 1003.26 1005.34 1004.90 1003.38 1003.34 1002.90 1002.30 1002.10 1002.42 1002.86 1002.70 1002.74 1003.18 1003.30 1003.42 1003.78 1004.38 1004.78 1004.94 1004.90 1004.94 1004.86 1004.78 1004.74 1004.78 1004.90 1005.06 1005.22 1005.50 1005.74 1005.90 1006.18 1006.42 1006.66 1006.82 1007.06 1007.22 1007.22 1007.30 1007.38 1007.90 1008.46 1008.86 1009.26 1009.62
1001.70 1001.02 1000.78 1000.62 1000.70 1000.98 1002.02 1000.98 1000.62 1000.66 1000.50 1000.90 1001.22 1001.42 1001.66 1002.74 1003.66 1004.06 1004.30 1004.98 1005.86 1002.66 1000.66 1001.22 1001.46 1002.18 1002.34 1002.98 1003.22 1002.94 1002.86 1003.10 1003.34 1003.42 1003.90 1004.34 1004.70 1004.78 1004.62 1004.70 1004.70 1004.58 1004.54 1004.46 1004.58 1004.94 1005.22 1005.30 1005.42 1005.62 1005.78 1005.90 1006.10 1006.34 1006.58 1006.74 1006.82 1006.86 1007.22 1007.90 1008.30 1008.62 1009.22
1002.98 1000.78 1000.78 1000.78 1000.50 1000.78 1001.34 1001.62 1001.26 1000.90 1001.18 1002.18 1001.74 1002.50 1001.94 1003.18 1003.78 1003.66 1004.62 1006.18 1005.54 1002.38 1001.70 1001.86 1002.38 1002.62 1002.58 1002.90 1002.98 1003.14 1003.30 1002.78 1002.34 1002.66 1003.22 1003.82 1004.34 1004.34 1004.46 1004.38 1004.50 1004.78 1004.90 1005.02 1005.10 1005.02 1004.86 1004.90 1005.02 1005.14 1005.34 1005.46 1005.90 1006.26 1006.22 1006.34 1006.18 1006.38 1007.06 1007.70 1008.42 1009.10 1009.58
1002.98 1001.14 1000.18 1000.58 1000.42 1001.26 1003.34 1002.26 1000.50 1000.94 1001.34 1001.58 1001.58 1001.54 1001.38 1001.42 1001.58 1004.54 1006.30 1005.38 1002.10 1001.42 1001.82 1002.38 1003.38 1003.10 1002.66 1002.62 1002.54 1002.46 1002.74 1002.74 1002.26 1002.54 1002.86 1003.10 1003.06 1003.10 1003.34 1004.22 1004.58 1004.50 1004.54 1004.46 1004.54 1004.58 1004.62 1004.70 1004.82 1004.82 1004.86 1005.34 1005.66 1005.66 1005.82 1005.50 1005.86 1006.62 1007.02 1007.50 1008.10 1008.30 1008.42
1002.50 1000.90 1000.26 1000.30 1002.50 1007.14 1007.06 1001.86 999.74 999.14 1001.62 1001.90 1002.74 1003.46 1002.30 1002.34 1001.30 1001.94 1001.06 1000.46 1000.86 1001.82 1002.26 1001.94 1002.86 1002.90 1002.30 1001.70 1001.70 1001.14 1001.70 1002.30 1002.30 1002.42 1002.62 1002.74 1002.94 1003.02 1002.98 1002.78 1003.18 1003.86 1003.94 1004.06 1004.10 1004.06 1004.02 1003.98 1004.02 1004.06 1004.38 1004.74 1004.70 1004.66 1004.98 1005.38 1005.74 1005.94 1006.42 1007.02 1007.46 1007.98 1008.78
1002.62 1001.54 1000.50 1003.26 1006.74 1006.38 1001.98 1000.18 999.54 999.14 999.94 1000.34 1001.94 1002.02 1001.98 1001.90 1000.58 1000.90 1001.50 1002.22 1001.26 1000.74 1001.02 1001.26 1001.74 1001.86 1001.94 1001.62 1001.74 1001.90 1001.14 1000.86 1001.54 1002.14 1002.42 1002.62 1002.86 1002.82 1002.86 1002.94 1002.62 1002.82 1003.42 1003.54 1003.70 1004.06 1004.18 1004.14 1004.14 1004.38 1004.66 1004.58 1004.74 1005.18 1005.22 1005.38 1005.46 1006.10 1006.82 1007.34 1008.10 1008.66 1009.02
1001.98 1002.50 1003.06 1006.46 1006.74 1002.74 1001.50 1000.74 1000.58 1000.18 1000.10 1000.42 1000.66 1002.50 1002.14 1002.30 1002.18 1002.02 1002.50 1001.94 1001.86 1001.50 1001.42 1001.70 1001.70 1001.78 1001.98 1001.90 1001.58 1001.02 1001.06 1000.54 1000.90 1001.54 1001.90 1002.02 1002.14 1002.26 1002.10 1002.06 1002.14 1002.46 1003.14 1003.18 1003.38 1003.54 1003.34 1003.78 1004.10 1004.34 1004.46 1004.34 1004.70 1004.82 1005.14 1006.22 1007.02 1007.50 1008.02 1008.82 1009.58 1009.62 1009.82
1002.70 1004.42 1003.46 1004.46 1003.30 1003.02 1002.06 1002.14 1001.90 1001.02 1001.26 1001.30 1001.90 1005.46 1004.70 1003.06 1002.98 1002.34 1002.46 1001.86 1000.78 1001.54 1002.30 1002.18 1001.98 1001.78 1001.74 1002.50 1002.54 1001.70 1001.46 1000.82 1000.46 1000.62 1001.22 1001.30 1001.30 1001.22 1001.22 1001.18 1001.46 1001.98 1002.22 1002.42 1002.58 1002.78 1003.18 1003.38 1003.74 1003.98 1004.02 1004.30 1004.66 1005.46 1006.66 1007.18 1007.46 1007.98 1008.22 1008.82 1009.46 1009.94 1010.26
1002.58 1003.42 1005.22 1005.74 1005.38 1007.22 1006.46 1003.50 1001.26 1000.06 999.30 998.86 999.66 1001.50 1004.82 1002.62 1002.54 1002.82 1002.46 1002.54 1002.18 1001.78 1001.50 1001.50 1001.58 1001.22 1002.94 1004.50 1003.82 1001.74 1001.06 1000.86 1000.74 1001.18 1000.86 1000.90 1000.66 1000.82 1001.14 1001.70 1001.54 1001.78 1002.26 1002.42 1002.54 1002.98 1003.46 1003.86 1003.90 1004.06 1004.38 1004.98 1005.82 1006.58 1006.62 1006.34 1006.58 1007.06 1007.26 1007.74 1008.14 1008.62 1009.42
1001.90 1003.46 1005.22 1006.14 1006.82 1006.58 1004.42 1003.30 1001.82 1000.94 999.78 999.38 999.22 1002.54 1006.26 1003.18 1003.26 1002.42 1002.74 1002.30 1002.22 1001.78 1002.02 1002.54 1001.82 1002.90 1005.02 1005.30 1003.90 1001.86 1001.30 1001.62 1001.26 1001.38 1001.34 1000.94 1000.62 1000.78 1001.02 1001.06 1001.42 1001.42 1001.98 1002.30 1002.50 1002.82 1003.22 1003.70 1003.86 1003.86 1004.18 1004.82 1005.66 1006.30 1006.30 1006.34 1006.38 1006.90 1007.74 1008.58 1008.46 1008.46 1008.50
1004.18 1004.18 1005.26 1006.46 1005.22 1006.58 1004.66 1003.18 1001.94 1000.82 1000.14 999.30 1000.42 1006.94 1008.50 1004.42 1003.42 1002.98 1002.18 1002.14 1002.50 1002.78 1002.58 1002.14 1002.02 1003.14 1005.34 1005.34 1003.66 1001.94 1001.34 1001.30 1001.10 1000.58 1000.78 1001.06 1001.18 1001.42 1001.14 1001.34 1001.26 1001.62 1001.90 1002.30 1002.86 1003.14 1003.50 1003.78 1003.58 1003.70 1004.18 1004.94 1005.66 1006.14 1006.46 1006.38 1006.42 1006.42 1006.74 1007.14 1007.54 1007.46 1007.50
1004.54 1004.74 1005.82 1005.10 1005.14 1003.66 1003.10 1002.54 1001.30 999.86 999.46 999.90 1005.58 1009.86 1007.90 1004.14 1004.18 1003.26 1002.82 1003.14 1003.10 1002.22 1002.02 1002.10 1003.94 1004.30 1003.46 1003.10 1002.70 1002.14 1001.62 1001.22 1001.26 1001.02 1000.86 1000.90 1001.02 1001.30 1001.22 1001.30 1001.70 1001.54 1001.78 1001.70 1002.30 1002.62 1003.06 1003.34 1003.46 1003.62 1003.94 1004.54 1005.14 1005.22 1005.22 1005.42 1005.34 1005.02 1005.30 1005.98 1006.70 1007.14 1007.62
1005.26 1005.66 1005.58 1006.14 1005.90 1003.98 1002.74 1001.42 1001.22 999.66 1000.38 1007.10 1009.62 1005.62 1003.74 1004.38 1004.34 1003.62 1003.22 1003.42 1003.42 1003.30 1003.26 1003.34 1003.54 1003.22 1002.62 1002.46 1002.26 1002.18 1002.02 1001.98 1001.86 1001.38 1001.10 1001.10 1001.22 1001.78 1002.10 1002.14 1001.66 1001.62 1002.34 1002.54 1002.82 1002.94 1002.94 1002.90 1002.94 1003.22 1003.54 1004.02 1004.46 1004.82 1005.02 1004.98 1004.50 1004.30 1005.14 1005.70 1006.18 1007.06 1007.78
1004.90 1005.70 1006.66 1006.82 1008.18 1004.38 1002.50 1002.06 1001.30 1001.74 1004.58 1006.46 1004.54 1004.14 1004.26 1003.82 1003.98 1004.02 1003.98 1003.70 1003.86 1003.38 1003.82 1003.54 1003.50 1003.22 1003.06 1002.98 1002.94 1002.66 1002.34 1002.30 1002.38 1002.62 1002.30 1002.02 1001.58 1001.66 1002.18 1002.06 1002.50 1001.98 1002.34 1002.90 1002.98 1002.98 1003.10 1002.90 1002.74 1002.70 1002.94 1003.66 1004.14 1004.34 1004.54 1004.10 1004.02 1004.46 1004.90 1005.30 1005.78 1006.30 1006.74
1006.70 1006.90 1007.98 1009.74 1007.42 1005.62 1002.86 1002.30 1005.54 1005.18 1004.38 1003.90 1003.94 1003.90 1004.94 1004.22 1003.74 1004.06 1004.10 1004.14 1004.02 1003.82 1003.94 1004.06 1003.66 1003.46 1003.22 1002.90 1002.74 1002.86 1002.98 1002.26 1001.90 1001.70 1001.58 1001.62 1001.70 1002.10 1002.14 1002.34 1002.38 1002.46 1002.42 1002.90 1003.14 1003.30 1003.10 1003.02 1002.90 1002.82 1002.98 1003.58 1003.86 1004.02 1003.82 1003.46 1003.98 1004.46 1004.90 1005.26 1005.74 1006.38 1007.42
1005.78 1008.06 1007.70 1006.46 1005.34 1004.86 1003.78 1003.10 1004.02 1004.02 1003.66 1003.50 1003.74 1003.82 1004.22 1004.34 1004.62 1004.14 1004.34 1004.58 1004.34 1004.18 1003.82 1003.62 1003.74 1003.74 1003.82 1003.74 1003.34 1002.94 1003.30 1003.22 1002.78 1002.70 1002.74 1002.30 1002.34 1002.42 1002.30 1002.54 1003.06 1003.18 1002.34 1002.50 1003.06 1003.18 1003.22 1003.10 1002.98 1002.90 1002.86 1003.14 1003.74 1004.06 1003.74 1003.82 1004.14 1004.38 1004.78 1005.34 1006.10 1006.86 1007.78
1005.22 1005.42 1005.82 1005.62 1005.02 1004.74 1004.54 1003.78 1003.46 1003.70 1003.86 1003.74 1003.70 1003.94 1004.30 1004.22 1004.14 1004.22 1004.70 1004.86 1004.86 1004.66 1003.94 1003.74 1003.86 1004.06 1003.82 1003.34 1003.26 1003.50 1003.82 1003.34 1002.86 1002.34 1002.10 1002.02 1001.98 1002.06 1002.18 1002.50 1002.70 1002.94 1003.66 1003.34 1003.06 1003.42 1003.66 1003.86 1004.22 1004.54 1004.82 1005.18 1006.02 1006.46 1006.10 1005.90 1005.50 1005.10 1005.10 1005.62 1006.02 1006.62 1007.70
1005.58 1008.06 1005.58 1005.58 1005.50 1005.18 1004.90 1004.54 1003.98 1003.66 1003.66 1003.94 1003.82 1004.22 1004.54 1004.58 1004.30 1004.54 1004.78 1005.02 1005.22 1005.18 1004.70 1004.42 1004.34 1003.94 1003.62 1003.30 1003.38 1003.46 1003.30 1003.02 1003.10 1003.14 1002.70 1002.34 1002.26 1001.90 1001.94 1002.38 1002.58 1003.14 1003.62 1003.98 1004.06 1004.30 1004.66 1004.62 1004.74 1004.90 1005.06 1005.10 1005.26 1005.50 1006.10 1006.58 1006.90 1006.46 1006.06 1006.30 1006.86 1007.18 1007.38
1005.82 1006.62 1005.54 1005.26 1005.02 1004.82 1004.66 1004.62 1004.62 1004.66 1004.26 1003.82 1003.66 1003.86 1004.10 1004.22 1004.30 1004.42 1004.78 1004.98 1005.18 1004.62 1004.82 1004.74 1004.66 1004.30 1003.54 1003.46 1003.42 1003.38 1003.42 1003.30 1003.26 1003.02 1002.74 1002.46 1002.50 1002.62 1002.38 1002.42 1002.70 1003.14 1003.50 1003.90 1004.14 1004.38 1004.78 1004.78 1004.66 1004.78 1004.90 1005.18 1005.42 1005.94 1006.42 1006.62 1007.34 1008.10 1008.14 1008.30 1007.94 1007.22 1006.98
1006.58 1005.78 1005.34 1005.26 1004.98 1004.62 1004.66 1004.54 1004.34 1004.34 1004.30 1004.22 1004.06 1003.78 1003.74 1003.82 1004.10 1004.10 1003.86 1004.34 1005.18 1005.26 1005.34 1005.06 1004.86 1004.46 1004.14 1004.02 1004.14 1004.02 1003.70 1003.46 1003.14 1003.10 1003.30 1003.42 1003.50 1003.30 1003.38 1003.42 1003.14 1003.14 1003.46 1004.06 1004.46 1004.74 1004.98 1004.66 1004.62 1004.90 1005.26 1005.62 1005.86 1006.38 1006.86 1006.90 1007.14 1007.74 1008.22 1008.34 1008.06 1007.62 1007.70
1007.10 1006.62 1005.78 1005.46 1006.70 1007.18 1005.94 1005.26 1004.82 1004.42 1004.06 1003.94 1004.14 1003.98 1004.14 1004.34 1004.42 1004.58 1004.90 1004.78 1004.74 1004.94 1005.18 1005.30 1005.42 1005.54 1004.94 1004.54 1004.34 1004.42 1003.94 1003.58 1003.14 1003.18 1003.18 1003.26 1003.42 1003.38 1003.42 1003.34 1003.42 1003.74 1003.86 1004.06 1004.58 1005.06 1005.26 1004.98 1004.94 1005.30 1005.58 1005.90 1005.98 1005.94 1006.14 1006.22 1006.58 1007.54 1008.22 1008.58 1008.66 1008.62 1008.26
1006.50 1005.50 1004.94 1005.06 1005.18 1005.98 1006.02 1005.74 1005.14 1004.66 1004.38 1004.22 1004.50 1004.74 1004.66 1004.62 1004.62 1004.70 1004.86 1005.18 1005.26 1005.38 1005.70 1005.38 1005.78 1005.86 1005.86 1005.38 1004.78 1004.54 1003.98 1003.46 1003.22 1003.26 1003.26 1003.18 1003.30 1003.50 1003.42 1003.58 1003.86 1004.06 1004.46 1004.58 1004.82 1005.26 1005.46 1005.30 1005.38 1005.58 1005.90 1006.14 1006.22 1006.22 1006.50 1006.98 1006.90 1007.38 1008.66 1009.46 1009.34 1009.10 1009.26
1006.54 1006.50 1006.10 1005.62 1005.46 1006.22 1006.22 1005.74 1005.38 1005.06 1004.50 1004.38 1004.66 1004.66 1004.46 1004.30 1004.46 1004.74 1004.98 1005.18 1005.54 1005.74 1005.82 1005.70 1005.62 1005.78 1005.70 1005.30 1004.90 1004.66 1003.98 1003.70 1003.70 1003.62 1003.54 1003.42 1003.26 1003.26 1003.50 1003.70 1003.94 1004.26 1004.58 1004.78 1004.82 1005.06 1005.18 1005.22 1005.42 1005.58 1005.90 1005.98 1005.82 1006.02 1006.30 1006.38 1006.42 1007.06 1007.90 1008.86 1008.94 1008.50 1008.02
1007.46 1007.02 1006.30 1005.50 1005.50 1005.54 1005.42 1005.30 1005.14 1005.06 1004.86 1004.58 1004.90 1005.02 1004.94 1004.90 1004.98 1005.06 1005.42 1005.66 1005.74 1005.86 1005.98 1005.86 1005.58 1005.46 1005.50 1005.18 1004.90 1004.54 1004.30 1003.94 1003.78 1003.82 1003.70 1003.58 1003.50 1003.42 1003.54 1003.86 1004.06 1004.14 1004.38 1004.46 1004.54 1004.54 1004.66 1004.78 1004.86 1004.74 1004.62 1004.66 1004.70 1004.74 1004.78 1005.34 1006.02 1006.22 1006.46 1007.02 1007.78 1007.90 1007.70
Wind_Speed
8 10 8 6 9 9 5 5 6 8 8 8 1 1 2 1 2 4 2 1 3 3 4 8 3 9 11 12 12 12 11 12 12 14 14 14 14 14 14 14 15 16 15 16 17 17 16 16 16 17 19 18 19 17 16 16 15 13 12 13 12 10 9
8 9 11 8 10 7 4 9 9 1 2 5 6 5 1 0 3 5 2 5 3 1 6 1 2 7 12 14 15 15 14 12 14 14 15 15 15 16 17 18 17 18 19 19 18 17 19 20 21 20 20 19 18 18 18 18 16 16 14 13 12 11 11
8 6 6 8 5 7 9 9 4 9 5 4 1 3 1 0 1 2 3 2 2 7 6 1 5 8 11 13 12 11 12 13 15 14 14 14 15 13 11 12 12 13 15 17 18 19 20 20 20 21 20 18 16 16 17 19 20 18 17 13 11 10 11
5 4 5 11 10 2 0 4 4 4 6 5 3 7 4 5 3 1 7 2 5 5 6 10 12 10 7 10 10 13 17 17 16 13 13 14 13 14 15 14 15 17 18 19 20 20 19 19 18 17 18 16 17 17 17 17 17 14 12 11 11 11 11
12 10 6 10 10 11 4 4 5 1 1 2 6 0 5 7 4 5 4 2 3 4 5 9 12 13 14 17 18 15 13 13 14 15 15 15 17 16 16 15 15 18 19 19 20 21 20 18 16 14 15 18 17 15 16 16 16 15 16 14 12 11 11
6 7 6 12 12 12 7 9 8 7 4 5 7 6 3 2 5 3 3 6 6 7 3 10 12 13 14 15 15 12 11 14 15 14 15 15 14 13 17 21 22 17 18 22 19 16 13 14 15 16 15 14 15 16 16 15 14 15 15 13 12 11 10
7 8 8 14 12 11 9 11 8 9 4 5 5 4 5 0 3 5 5 3 5 5 4 8 7 6 7 10 12 14 13 14 14 13 13 14 18 21 18 15 18 21 19 18 19 19 18 18 18 18 16 17 17 17 15 14 15 15 14 13 11 10 10
8 8 8 11 9 9 4 4 4 8 7 7 6 6 7 7 2 3 0 2 6 3 3 6 7 8 9 11 14 15 13 12 13 13 13 15 13 13 19 20 15 15 19 17 14 17 17 15 14 16 16 16 14 14 15 14 16 15 13 11 10 9 9
1 6 3 6 3 5 3 3 5 5 6 8 4 5 1 3 6 7 7 6 4 4 1 5 8 11 12 13 11 14 13 11 12 13 13 14 16 15 16 18 18 16 15 16 16 16 17 16 16 16 15 15 15 15 15 15 15 15 12 11 11 10 11
7 8 11 10 7 7 1 3 6 8 10 11 6 3 2 3 2 4 4 4 7 4 2 2 6 11 9 8 7 7 14 13 12 10 11 13 14 16 16 16 16 16 15 16 17 16 14 15 16 16 16 16 16 16 17 16 15 13 13 11 12 12 12
10 11 8 8 7 4 6 5 9 7 7 11 8 6 6 9 4 7 6 7 3 3 3 5 8 11 17 10 6 9 6 6 10 10 11 12 13 16 20 17 15 13 10 13 16 17 17 18 16 16 17 16 16 16 17 16 15 15 14 13 13 13 13
12 10 8 8 12 10 11 9 11 8 9 6 8 9 8 7 10 6 5 5 12 12 10 10 11 11 8 6 7 9 8 9 11 12 12 13 12 10 10 11 13 15 17 17 17 18 17 17 17 16 17 18 18 18 18 16 15 14 13 14 14 14 14
16 14 11 5 8 11 8 12 11 12 9 7 10 8 9 10 9 10 7 10 15 16 17 17 18 17 15 14 14 14 12 9 6 7 9 11 13 11 11 12 13 14 14 14 17 18 20 20 19 19 17 16 15 16 17 16 15 16 15 15 15 15 15
8 10 11 7 10 8 15 15 13 12 11 9 12 10 6 10 8 13 13 14 15 16 14 17 19 12 13 11 8 7 9 11 9 8 9 10 10 12 13 14 14 15 17 17 18 18 18 19 19 18 17 16 17 17 16 16 16 16 15 16 17 17 17
13 9 9 5 5 8 8 13 12 9 11 15 15 13 13 10 6 1 9 15 13 9 15 17 9 6 5 8 7 11 10 10 10 10 10 10 11 11 11 9 11 14 16 16 16 16 17 19 20 19 18 18 18 18 16 17 17 17 17 17 17 17 15
5 4 4 3 4 4 7 7 6 4 2 5 3 5 1 5 6 6 10 11 12 12 2 2 6 8 13 13 10 8 7 9 11 10 10 10 9 10 10 11 11 10 9 9 11 14 16 17 18 18 18 18 16 17 17 17 17 16 15 14 13 10 9
3 4 7 7 9 7 4 6 4 3 4 4 4 3 4 2 6 8 5 9 12 11 8 9 5 8 11 12 11 11 8 9 10 10 9 8 9 8 8 10 11 12 12 13 14 15 14 15 15 16 16 14 16 15 16 17 12 12 15 15 14 17 18
5 5 6 3 5 2 2 6 2 6 7 7 9 2 2 1 4 4 7 10 6 2 7 13 13 14 15 14 8 8 12 9 8 8 8 10 9 8 8 10 12 13 12 11 12 14 15 16 17 17 15 16 18 17 15 12 14 16 16 14 16 14 12
4 3 6 2 4 4 6 2 3 6 8 13 9 7 6 4 9 8 8 4 4 11 11 11 10 6 3 4 8 5 6 9 9 9 8 8 8 10 9 8 9 11 12 12 11 11 11 12 12 11 11 12 10 9 11 14 14 10 8 11 10 9 10
2 2 3 5 4 4 1 2 1 3 6 6 10 9 10 10 5 8 10 9 7 8 11 9 7 8 6 4 1 4 5 7 8 7 7 8 9 9 9 10 9 10 10 11 12 13 12 11 11 10 12 12 11 14 9 2 7 7 9 11 9 8 8
6 4 5 4 1 2 5 2 2 3 4 3 8 4 3 6 9 3 6 6 14 11 6 7 8 7 6 6 3 2 4 5 6 10 9 9 7 6 6 6 8 8 9 10 11 10 9 11 12 13 12 11 9 5 12 13 12 11 13 12 10 7 4
6 7 3 2 2 3 1 4 6 4 1 6 7 9 3 7 9 7 3 8 7 11 12 11 8 8 10 6 0 2 2 2 4 3 4 4 5 4 4 2 4 6 5 4 2 3 3 3 3 3 4 7 12 14 14 13 15 14 13 13 13 13 10
5 6 4 1 3 2 5 5 5 4 4 6 8 9 3 4 8 9 2 9 9 12 12 7 8 9 7 4 3 4 3 1 4 5 3 4 7 8 9 10 8 6 7 10 10 10 10 8 4 6 10 14 13 12 13 13 13 13 9 8 11 12 12
3 3 2 0 0 2 3 5 6 6 4 2 2 2 2 6 11 8 1 7 6 5 3 5 9 11 10 5 3 3 1 1 1 5 6 4 4 2 5 5 7 8 11 12 10 9 9 9 10 13 14 14 14 12 10 10 11 13 16 15 13 14 13
4 4 0 1 1 2 2 5 6 7 2 9 6 4 4 5 6 5 6 8 5 4 7 5 8 5 2 3 1 4 3 6 6 4 1 3 1 4 5 5 5 7 6 12 13 13 12 12 11 12 13 14 14 14 14 13 14 15 13 10 12 14 14
1 0 1 1 1 1 4 5 5 6 4 6 7 4 2 2 3 6 8 11 8 9 11 8 7 4 5 4 5 8 9 6 5 6 6 4 2 5 3 2 5 7 5 6 8 8 10 14 13 12 12 13 12 12 13 14 16 12 9 9 11 13 16
3 3 3 0 1 4 11 12 8 8 7 3 4 1 3 2 4 6 7 8 6 7 6 5 5 5 6 6 6 4 5 4 2 1 1 1 1 1 3 1 1 7 7 7 10 11 9 10 11 12 14 14 13 12 14 16 11 7 5 6 8 11 13
3 3 1 1 3 9 12 4 7 2 3 3 3 5 7 7 8 7 8 9 7 6 6 6 6 6 7 7 6 3 3 5 5 5 5 3 4 4 2 1 5 4 6 7 8 6 8 8 8 8 11 12 13 13 16 12 9 7 5 7 8 7 5
5 1 1 2 5 5 8 11 9 7 6 6 5 10 9 10 9 5 10 10 9 9 8 11 10 10 7 5 5 5 2 2 2 3 2 3 4 3 3 4 1 3 7 12 8 9 7 8 8 9 8 12 12 12 9 5 9 9 8 7 8 6 6
5 7 4 2 3 7 9 7 6 8 7 6 7 9 10 7 8 8 8 8 9 9 9 11 8 6 5 6 7 6 6 6 4 3 4 3 3 3 3 4 4 2 5 0 8 8 4 1 4 9 13 14 13 12 15 13 5 2 6 9 8 9 7
5 2 3 4 3 4 7 6 5 7 7 5 5 8 6 5 6 8 6 5 5 4 6 7 4 5 5 6 4 2 4 4 4 4 2 0 1 3 4 4 6 4 3 2 4 5 7 7 8 10 13 12 12 12 12 13 13 6 9 10 9 8 8
4 5 2 1 1 2 2 5 6 6 7 9 8 6 5 5 6 6 6 7 11 10 10 10 10 10 8 8 7 3 2 1 1 2 3 2 0 1 1 5 6 6 6 5 7 9 9 9 11 10 11 12 11 10 9 10 10 7 9 8 3 5 5
1 3 3 2 2 7 8 6 4 4 5 6 8 10 11 12 12 11 11 12 11 13 11 12 12 12 10 6 5 4 2 3 3 2 3 3 3 2 2 1 2 8 7 8 9 12 10 9 12 13 12 11 13 14 11 11 12 12 10 8 6 6 4
6 7 6 3 5 2 2 4 4 5 4 9 9 10 11 10 10 9 10 10 10 10 10 10 12 12 9 10 7 9 6 5 4 3 2 2 0 1 1 3 4 4 7 12 13 12 9 10 12 13 14 13 12 12 11 12 13 11 9 9 10 9 8
8 3 3 3 6 5 1 1 4 5 4 7 10 8 7 6 6 5 5 6 7 6 9 4 3 5 6 9 8 8 7 7 5 3 3 4 4 3 4 6 5 7 7 9 13 13 10 10 12 11 11 10 10 11 10 8 10 10 7 5 0 1 3
8 6 4 2 2 5 2 1 2 4 3 6 7 5 6 8 8 7 6 3 2 1 3 4 2 3 4 7 7 8 8 6 4 3 4 4 4 4 4 5 9 10 10 10 12 13 10 11 12 10 9 9 11 11 10 11 13 13 12 10 9 10 12
3 6 3 1 5 4 2 3 5 5 4 6 8 8 9 9 8 6 8 7 5 4 4 5 5 4 6 8 8 8 7 5 3 2 4 4 5 6 8 8 9 10 10 11 11 12 11 12 13 13 12 12 13 14 11 9 8 10 13 13 12 10 9
Wind_Direction
221 201 155 186 155 196 241 167 189 199 178 134 171 295 221 93 69 251 201 335 312 307 348 6 93 143 151 154 167 166 170 168 170 180 184 185 185 186 186 188 189 188 184 184 184 184 185 183 182 183 183 182 181 179 181 182 182 180 181 179 176 174 169
232 219 169 176 183 153 143 196 227 233 93 125 144 201 316 51 155 262 358 241 291 138 265 309 65 144 166 168 174 175 174 164 171 183 184 182 185 187 188 189 187 185 184 184 187 189 187 186 186 187 186 184 182 179 180 180 181 183 187 181 176 173 169
208 228 193 210 215 159 155 199 177 149 204 198 307 101 151 146 257 255 302 233 253 185 233 195 191 185 180 178 171 167 173 176 182 181 183 185 185 182 182 186 187 189 189 187 188 190 193 192 190 188 186 183 182 182 181 181 184 186 183 182 176 173 170
186 195 163 216 210 281 189 100 183 193 133 178 132 205 185 129 234 150 283 335 246 217 217 194 194 188 179 161 170 185 185 186 185 177 174 177 177 181 183 184 189 190 191 190 190 191 191 194 193 190 185 182 184 184 183 185 185 182 177 180 177 175 176
164 216 187 207 189 196 205 160 192 285 224 234 143 40 137 170 163 178 198 281 274 257 212 191 191 177 177 173 185 192 186 187 189 183 176 180 180 180 184 186 190 195 193 193 195 194 194 191 189 184 183 185 186 183 186 186 179 179 183 182 180 181 175
220 211 206 195 193 191 170 162 188 176 118 117 179 246 346 108 115 190 158 241 263 263 196 185 184 191 180 188 178 175 185 188 192 191 182 177 175 173 181 192 193 187 197 200 194 193 189 185 185 187 187 184 183 186 187 184 183 186 185 182 181 176 174
232 224 203 212 180 176 180 160 204 184 151 114 134 183 256 331 227 136 144 149 270 241 193 178 187 165 180 173 177 186 190 194 195 188 175 178 181 188 190 189 194 198 195 191 190 187 185 186 187 186 184 186 187 186 182 184 184 189 186 183 175 171 170
269 244 228 213 174 162 135 203 139 155 174 166 164 167 187 175 193 125 222 219 257 282 219 167 157 165 173 187 185 188 191 196 195 184 172 180 193 189 191 195 193 190 194 189 183 188 188 186 184 185 186 188 183 182 185 183 186 185 184 178 170 165 166
291 283 275 245 218 175 158 169 165 180 167 158 156 118 65 176 226 168 137 211 273 282 183 166 165 171 184 193 194 181 187 198 195 185 180 181 186 189 194 197 196 193 191 189 188 186 186 184 185 184 183 184 183 185 184 186 187 184 180 172 169 167 170
191 203 200 206 226 216 223 156 179 186 162 179 151 187 187 194 272 118 148 233 253 274 27 197 209 173 182 193 179 192 173 180 185 180 177 180 179 189 194 197 196 191 189 191 190 186 184 183 182 184 184 184 185 184 187 185 181 180 180 172 172 170 176
191 204 200 230 155 178 207 191 187 205 200 187 172 125 124 194 204 173 228 174 204 203 182 203 214 182 180 183 181 170 174 173 177 170 166 174 183 190 195 194 194 197 194 186 182 183 184 184 183 183 183 185 185 187 187 186 183 180 176 172 173 174 179
209 202 212 199 179 194 199 200 209 196 192 180 160 155 198 177 111 216 255 193 150 195 194 198 201 202 186 171 168 168 173 173 176 176 168 176 185 193 191 190 185 183 188 188 187 187 185 185 185 185 186 185 184 186 188 187 183 179 176 175 175 179 182
220 213 208 212 195 192 199 207 207 202 187 178 191 203 193 138 174 199 228 194 177 192 192 194 192 188 186 174 178 175 175 170 171 161 150 168 181 184 182 186 184 190 188 190 191 188 187 185 184 185 186 189 189 191 188 184 181 183 178 176 177 181 185
234 221 217 179 181 207 200 208 209 206 193 187 188 206 214 182 198 204 188 182 201 184 194 193 195 189 169 173 171 154 144 164 172 153 149 168 181 184 189 189 191 190 190 188 189 190 189 188 187 187 187 187 190 191 190 187 185 184 175 179 179 184 187
221 228 224 213 191 172 227 218 215 217 209 203 196 203 200 184 222 213 155 176 217 233 193 190 182 155 133 120 150 165 169 155 157 160 169 170 176 190 193 197 198 198 198 197 193 187 189 190 190 188 189 191 193 192 189 188 189 185 181 183 184 184 182
200 195 146 158 169 177 201 190 184 197 165 238 234 218 217 158 205 185 165 176 211 224 235 72 109 147 157 160 162 151 161 168 159 169 180 163 169 171 185 195 204 208 206 206 203 202 197 193 193 191 192 194 189 194 191 192 194 185 183 182 177 163 164
223 211 115 88 61 35 317 240 201 117 84 95 79 79 107 143 148 114 151 227 212 204 154 141 174 171 162 154 165 164 172 171 152 159 166 166 166 183 188 188 195 200 202 201 201 203 202 198 195 199 197 192 197 197 194 199 183 176 181 174 165 172 180
201 220 136 87 57 75 251 247 266 115 121 115 84 11 353 262 150 179 184 210 214 103 157 162 170 177 174 166 187 165 156 152 143 149 156 158 169 181 188 191 191 199 199 199 204 201 198 199 198 197 193 195 200 198 192 185 185 190 183 173 175 169 148
185 151 108 114 169 201 225 287 318 94 108 88 83 60 18 14 63 69 75 57 150 177 170 168 157 145 128 130 133 143 142 133 143 157 166 166 173 179 184 188 196 197 194 193 189 192 203 205 205 201 204 207 200 187 189 195 198 178 159 159 145 130 125
93 55 83 169 224 228 311 273 195 84 85 99 74 38 14 6 36 99 94 94 69 92 111 111 122 121 115 64 52 153 171 153 146 145 171 189 178 179 186 180 197 192 194 190 185 192 194 193 200 204 208 202 192 199 187 134 68 88 99 91 82 93 127
145 173 123 180 228 11 346 38 357 345 122 110 112 116 19 19 346 10 88 88 104 89 76 103 111 119 93 75 53 294 214 192 168 165 182 175 187 180 201 186 183 196 191 184 192 186 184 189 191 199 204 199 195 132 89 98 108 107 115 117 123 123 101
111 118 59 32 118 150 288 261 263 322 244 143 141 100 335 327 355 345 110 107 112 116 124 124 122 94 78 99 106 289 310 241 181 181 159 181 144 140 102 40 132 152 180 189 155 135 123 97 110 75 66 76 89 110 130 138 137 145 147 144 148 151 155
49 49 106 156 136 223 212 266 293 305 297 144 101 76 358 287 330 339 275 129 141 139 134 141 112 100 127 184 251 273 303 97 134 115 150 138 129 131 133 132 124 139 131 133 131 130 140 144 105 96 107 112 118 130 140 146 150 149 140 156 168 159 164
72 123 85 189 204 110 322 275 294 306 289 186 74 107 284 290 329 319 146 106 96 60 61 128 116 131 144 192 238 259 273 237 258 133 135 95 123 112 112 122 134 122 117 107 108 122 132 142 143 133 129 127 131 137 150 156 155 164 177 184 174 172 167
18 44 250 353 356 324 300 279 297 340 14 76 65 130 233 308 321 8 53 45 17 78 75 61 77 17 188 196 279 349 4 59 31 12 4 109 162 144 132 125 116 115 127 134 147 154 151 152 146 144 142 143 153 159 165 173 184 187 185 171 162 169 174
96 248 124 227 195 234 301 277 360 344 59 59 118 219 214 274 353 33 58 65 48 55 68 75 78 67 47 44 37 43 40 47 22 10 7 33 67 71 51 85 118 109 105 116 137 147 157 158 155 154 154 159 164 167 172 187 197 193 175 175 170 171 186
70 50 65 329 273 291 324 304 18 18 81 190 209 154 4 353 31 39 40 59 57 64 58 66 95 76 57 62 42 15 33 46 45 133 169 120 316 93 85 106 90 131 126 146 158 160 174 174 169 169 164 161 167 172 184 199 192 177 164 168 180 187 191
121 51 61 45 245 276 317 89 87 321 71 153 163 131 78 39 42 27 36 27 26 37 67 47 42 45 35 25 22 42 51 13 6 10 19 42 82 73 54 187 169 161 138 151 153 173 169 178 180 173 162 166 173 178 198 197 177 169 136 137 142 128 91
102 109 126 285 310 310 9 67 93 88 58 60 80 81 78 70 45 31 53 30 22 28 31 44 39 35 26 6 9 20 354 102 54 55 33 28 26 51 84 94 18 294 179 163 160 167 182 175 184 183 180 171 175 190 215 171 177 177 163 129 94 95 126
109 111 119 245 357 17 28 31 64 88 89 79 68 66 71 62 70 56 60 42 23 13 31 46 25 34 19 37 29 8 350 354 360 23 36 27 71 97 90 93 106 110 325 203 148 153 146 93 37 32 34 33 36 13 7 351 330 79 126 114 107 118 144
79 44 310 28 41 14 20 40 48 63 69 76 93 84 74 79 74 68 54 52 46 15 31 53 33 6 21 29 29 31 357 18 2 331 328 337 238 145 133 145 127 108 128 121 92 79 66 63 77 76 74 76 75 65 53 38 11 21 89 78 86 110 117
98 173 232 289 303 60 60 53 43 29 40 54 58 85 105 101 83 81 76 39 26 17 24 20 16 357 357 7 351 351 345 304 281 276 268 259 318 311 171 142 125 125 132 126 103 92 92 101 103 98 96 90 89 84 74 71 77 45 63 89 86 91 113
340 23 349 301 340 40 26 21 46 64 73 67 53 48 48 44 42 33 34 45 28 13 9 2 357 356 353 353 320 291 252 275 268 270 282 319 341 351 24 15 130 148 137 103 100 102 109 114 108 107 102 91 77 68 62 59 52 48 37 30 4 18 45
156 165 188 163 96 63 335 348 351 19 37 66 60 50 47 47 44 37 37 32 26 13 358 10 351 333 329 317 304 295 281 261 260 261 259 281 358 88 106 101 100 103 114 123 116 108 104 103 102 100 96 95 92 92 87 76 67 52 22 7 11 5 354
182 231 173 141 128 119 184 26 27 42 42 65 65 57 51 49 60 61 56 57 39 24 314 347 327 311 317 308 290 271 267 254 244 231 218 183 168 172 145 122 115 109 107 113 112 110 115 109 105 103 100 104 102 94 83 78 90 88 42 339 18 104 220
13 330 261 130 117 115 105 90 79 55 40 67 69 60 54 45 30 26 42 74 110 276 299 328 326 323 326 327 298 271 266 263 264 244 241 237 211 167 144 140 135 125 124 127 130 134 138 128 125 122 115 115 117 122 144 162 143 143 155 197 217 201 195
110 315 299 74 90 91 123 96 56 45 39 54 56 46 46 49 41 44 43 38 39 33 14 354 349 357 350 342 336 290 277 278 277 258 243 219 196 170 150 143 148 143 143 145 148 151 152 146 147 152 154 161 161 171 175 150 145 160 172 187 208 218 213